THORAD AGENA D DEB, 4709

Orbit data source: Space-Track

THORAD AGENA D DEB, 4709 is space debris in SSO originally from a launch on Wed, 08 Apr 1970 UTC launched from the Air Force Western Test Range (AFWTR). Debris objects in space refer to the collection of defunct objects orbiting the Earth. Examples of debris include non-operational satellites, rocket bodies, and fragments generated from explosions, collisions, or faulty payload assembly.

Loading next visibility...
Identifier
4709, 1970-025BX
Orbit
SSO
Country
Flag of USUS
Related business
Manufacturer
Unknown
Mission
Spacecraft
Bus & Motor
Unknown
Mass
Unknown
Launch date (UTC)
1970-04-08 (56 years ago)
Launch vehicle
Unknown
Launch site
Air Force Western Test Range (AFWTR)
Object type
Payload
Rocket body
Debris
Shape & HBR
Unknown shape, 0.1 m
Radar Cross Section
Medium (>0.1 m² and <1 m²)

Expand to show TLE details & history
Last TLE update: 9 hours ago

TLE from 9 hours ago
0 THORAD AGENA D DEB
1  4709U 70025BX  26167.05400966  .00003546  00000-0  71095-3 0  9999
2  4709 100.0115  95.5177 0071599 123.7617 237.0425 14.60968243903044
Epoch: 2026-06-16T01:17Z
TLE epoch observation values (Epoch: 2026-06-16T01:17:46.434Z)
Latitude
-0.00009°
Longitude
171.74268°
Altitude
720.765 km
Speed
7.48 km/s
True Right ascension
06h 22m 04s
True Declination
0° 00' 00"
Sunlit
Object was in daylight at epoch
Visualization orbit readout
Latitude
Unknown
Longitude
Unknown
Altitude
Unknown
Speed
Unknown
Apparent Right ascension
Unknown
Apparent Declination
Unknown
Sunlit
N/A
Visualization observer readout
Local Sidereal Time
21:17:22
Azimuth
Unknown
Elevation
Unknown
Doppler factor
Unknown
Orbital elements
Apogee altitude
737.809 km
Perigee altitude
636.634 km
Semi-major axis
7,065.358 km
Eccentricity
0.00716
Inclination
100.0115°
RAAN
95.5177°
Arg. of periapsis
123.7617°
True anomaly
236.35742°
Mean anomaly
237.0425°
Eccentric anomaly
236.69963°
Mean motion
3.65462 °/min
Orbital period
98.51 mins
BSTAR
0.00071095

Documentation

Showing up to 5 results
|